Year,Month,Day,Hour,Minute,Value (Times are PST for temperature in C)
2010,08,21,00,00,12.70
2010,08,21,00,01,12.70
2010,08,21,00,02,12.70
2010,08,21,00,03,12.80
2010,08,21,00,04,12.80
2010,08,21,00,05,12.80
2010,08,21,00,06,12.80
2010,08,21,00,07,12.80
2010,08,21,00,08,12.80
2010,08,21,00,09,12.80
2010,08,21,00,10,12.80
2010,08,21,00,11,12.80
2010,08,21,00,12,12.80
2010,08,21,00,13,12.80
2010,08,21,00,14,12.80
2010,08,21,00,15,12.80
2010,08,21,00,16,12.80
2010,08,21,00,17,12.80
2010,08,21,00,18,12.80
2010,08,21,00,19,12.70
2010,08,21,00,20,12.70
2010,08,21,00,21,12.70
2010,08,21,00,22,12.70
2010,08,21,00,23,12.70
2010,08,21,00,24,12.70
2010,08,21,00,25,12.70
2010,08,21,00,26,12.70
2010,08,21,00,27,12.70
2010,08,21,00,28,12.70
2010,08,21,00,29,12.70
2010,08,21,00,30,12.70
2010,08,21,00,31,12.70
2010,08,21,00,32,12.80
2010,08,21,00,33,12.80
2010,08,21,00,34,12.80
2010,08,21,00,35,12.80
2010,08,21,00,36,12.80
2010,08,21,00,37,12.80
2010,08,21,00,38,12.80
2010,08,21,00,39,12.80
2010,08,21,00,40,12.80
2010,08,21,00,41,12.80
2010,08,21,00,42,12.80
2010,08,21,00,43,12.80
2010,08,21,00,44,12.80
2010,08,21,00,45,12.90
2010,08,21,00,46,12.90
2010,08,21,00,47,12.90
2010,08,21,00,48,12.90
2010,08,21,00,49,12.90
2010,08,21,00,50,12.90
2010,08,21,00,51,12.90
2010,08,21,00,52,12.90
2010,08,21,00,53,12.90
2010,08,21,00,54,12.90
2010,08,21,00,55,12.80
2010,08,21,00,56,12.80
2010,08,21,00,57,12.80
2010,08,21,00,58,12.80
2010,08,21,00,59,12.80
2010,08,21,01,00,12.70
2010,08,21,01,01,12.70
2010,08,21,01,02,12.60
2010,08,21,01,03,12.60
2010,08,21,01,04,12.60
2010,08,21,01,05,12.50
2010,08,21,01,06,12.50
2010,08,21,01,07,12.40
2010,08,21,01,08,12.40
2010,08,21,01,09,12.30
2010,08,21,01,10,12.30
2010,08,21,01,11,12.30
2010,08,21,01,12,12.30
2010,08,21,01,13,12.30
2010,08,21,01,14,12.20
2010,08,21,01,15,12.20
2010,08,21,01,16,12.20
2010,08,21,01,17,12.20
2010,08,21,01,18,12.10
2010,08,21,01,19,12.10
2010,08,21,01,20,12.10
2010,08,21,01,21,12.10
2010,08,21,01,22,12.10
2010,08,21,01,23,12.10
2010,08,21,01,24,12.10
2010,08,21,01,25,12.10
2010,08,21,01,26,12.10
2010,08,21,01,27,12.10
2010,08,21,01,28,12.10
2010,08,21,01,29,12.10
2010,08,21,01,30,12.10
2010,08,21,01,31,12.10
2010,08,21,01,32,12.10
2010,08,21,01,33,12.10
2010,08,21,01,34,12.10
2010,08,21,01,35,12.10
2010,08,21,01,36,12.10
2010,08,21,01,37,12.10
2010,08,21,01,38,12.10
2010,08,21,01,39,12.20
2010,08,21,01,40,12.10
2010,08,21,01,41,12.10
2010,08,21,01,42,12.10
2010,08,21,01,43,12.10
2010,08,21,01,44,12.10
2010,08,21,01,45,12.10
2010,08,21,01,46,12.00
2010,08,21,01,47,12.00
2010,08,21,01,48,11.90
2010,08,21,01,49,11.90
2010,08,21,01,50,11.90
2010,08,21,01,51,11.90
2010,08,21,01,52,11.90
2010,08,21,01,53,11.90
2010,08,21,01,54,11.90
2010,08,21,01,55,11.90
2010,08,21,01,56,11.90
2010,08,21,01,57,11.90
2010,08,21,01,58,11.90
2010,08,21,01,59,11.90
2010,08,21,02,00,11.90
2010,08,21,02,01,11.90
2010,08,21,02,02,11.80
2010,08,21,02,03,11.80
2010,08,21,02,04,11.80
2010,08,21,02,05,11.80
2010,08,21,02,06,11.70
2010,08,21,02,07,11.70
2010,08,21,02,08,11.70
2010,08,21,02,09,11.70
2010,08,21,02,10,11.70
2010,08,21,02,11,11.70
2010,08,21,02,12,11.70
2010,08,21,02,13,11.70
2010,08,21,02,14,11.70
2010,08,21,02,15,11.70
2010,08,21,02,16,11.70
2010,08,21,02,17,11.70
2010,08,21,02,18,11.70
2010,08,21,02,19,11.70
2010,08,21,02,20,11.70
2010,08,21,02,21,11.70
2010,08,21,02,22,11.60
2010,08,21,02,23,11.60
2010,08,21,02,24,11.60
2010,08,21,02,25,11.60
2010,08,21,02,26,11.60
2010,08,21,02,27,11.60
2010,08,21,02,28,11.50
2010,08,21,02,29,11.50
2010,08,21,02,30,11.50
2010,08,21,02,31,11.40
2010,08,21,02,32,11.40
2010,08,21,02,33,11.40
2010,08,21,02,34,11.30
2010,08,21,02,35,11.30
2010,08,21,02,36,11.30
2010,08,21,02,37,11.30
2010,08,21,02,38,11.20
2010,08,21,02,39,11.20
2010,08,21,02,40,11.20
2010,08,21,02,41,11.20
2010,08,21,02,42,11.10
2010,08,21,02,43,11.10
2010,08,21,02,44,11.10
2010,08,21,02,45,11.10
2010,08,21,02,46,11.00
2010,08,21,02,47,11.00
2010,08,21,02,48,11.00
2010,08,21,02,49,10.90
2010,08,21,02,50,10.90
2010,08,21,02,51,10.90
2010,08,21,02,52,10.80
2010,08,21,02,53,10.80
2010,08,21,02,54,10.80
2010,08,21,02,55,10.80
2010,08,21,02,56,10.80
2010,08,21,02,57,10.70
2010,08,21,02,58,10.70
2010,08,21,02,59,10.70
2010,08,21,03,00,10.70
2010,08,21,03,01,10.70
2010,08,21,03,02,10.70
2010,08,21,03,03,10.70
2010,08,21,03,04,10.70
2010,08,21,03,05,10.60
2010,08,21,03,06,10.60
2010,08,21,03,07,10.60
2010,08,21,03,08,10.60
2010,08,21,03,09,10.60
2010,08,21,03,10,10.60
2010,08,21,03,11,10.60
2010,08,21,03,12,10.60
2010,08,21,03,13,10.60
2010,08,21,03,14,10.60
2010,08,21,03,15,10.50
2010,08,21,03,16,10.50
2010,08,21,03,17,10.50
2010,08,21,03,18,10.50
2010,08,21,03,19,10.50
2010,08,21,03,20,10.50
2010,08,21,03,21,10.50
2010,08,21,03,22,10.50
2010,08,21,03,23,10.50
2010,08,21,03,24,10.40
2010,08,21,03,25,10.40
2010,08,21,03,26,10.40
2010,08,21,03,27,10.40
2010,08,21,03,28,10.40
2010,08,21,03,29,10.40
2010,08,21,03,30,10.30
2010,08,21,03,31,10.30
2010,08,21,03,32,10.30
2010,08,21,03,33,10.30
2010,08,21,03,34,10.30
2010,08,21,03,35,10.30
2010,08,21,03,36,10.30
2010,08,21,03,37,10.30
2010,08,21,03,38,10.30
2010,08,21,03,39,10.30
2010,08,21,03,40,10.30
2010,08,21,03,41,10.30
2010,08,21,03,42,10.30
2010,08,21,03,43,10.20
2010,08,21,03,44,10.20
2010,08,21,03,45,10.20
2010,08,21,03,46,10.20
2010,08,21,03,47,10.20
2010,08,21,03,48,10.20
2010,08,21,03,49,10.20
2010,08,21,03,50,10.10
2010,08,21,03,51,10.10
2010,08,21,03,52,10.10
2010,08,21,03,53,10.10
2010,08,21,03,54,10.10
2010,08,21,03,55,10.10
2010,08,21,03,56,10.00
2010,08,21,03,57,10.00
2010,08,21,03,58,10.00
2010,08,21,03,59,9.90
2010,08,21,04,00,9.90
2010,08,21,04,01,9.90
2010,08,21,04,02,9.90
2010,08,21,04,03,9.90
2010,08,21,04,04,9.90
2010,08,21,04,05,9.90
2010,08,21,04,06,9.90
2010,08,21,04,07,9.90
2010,08,21,04,08,9.90
2010,08,21,04,09,9.90
2010,08,21,04,10,9.90
2010,08,21,04,11,9.90
2010,08,21,04,12,9.90
2010,08,21,04,13,9.90
2010,08,21,04,14,9.90
2010,08,21,04,15,9.80
2010,08,21,04,16,9.80
2010,08,21,04,17,9.80
2010,08,21,04,18,9.80
2010,08,21,04,19,9.70
2010,08,21,04,20,9.70
2010,08,21,04,21,9.70
2010,08,21,04,22,9.70
2010,08,21,04,23,9.70
2010,08,21,04,24,9.70
2010,08,21,04,25,9.70
2010,08,21,04,26,9.70
2010,08,21,04,27,9.60
2010,08,21,04,28,9.60
2010,08,21,04,29,9.60
2010,08,21,04,30,9.60
2010,08,21,04,31,9.60
2010,08,21,04,32,9.60
2010,08,21,04,33,9.60
2010,08,21,04,34,9.60
2010,08,21,04,35,9.60
2010,08,21,04,36,9.60
2010,08,21,04,37,9.60
2010,08,21,04,38,9.60
2010,08,21,04,39,9.60
2010,08,21,04,40,9.60
2010,08,21,04,41,9.60
2010,08,21,04,42,9.60
2010,08,21,04,43,9.60
2010,08,21,04,44,9.60
2010,08,21,04,45,9.60
2010,08,21,04,46,9.60
2010,08,21,04,47,9.60
2010,08,21,04,48,9.60
2010,08,21,04,49,9.50
2010,08,21,04,50,9.50
2010,08,21,04,51,9.50
2010,08,21,04,52,9.50
2010,08,21,04,53,9.50
2010,08,21,04,54,9.50
2010,08,21,04,55,9.50
2010,08,21,04,56,9.50
2010,08,21,04,57,9.40
2010,08,21,04,58,9.40
2010,08,21,04,59,9.40
2010,08,21,05,00,9.40
2010,08,21,05,01,9.40
2010,08,21,05,02,9.40
2010,08,21,05,03,9.40
2010,08,21,05,04,9.40
2010,08,21,05,05,9.40
2010,08,21,05,06,9.40
2010,08,21,05,07,9.40
2010,08,21,05,08,9.40
2010,08,21,05,09,9.40
2010,08,21,05,10,9.40
2010,08,21,05,11,9.40
2010,08,21,05,12,9.50
2010,08,21,05,13,9.60
2010,08,21,05,14,9.60
2010,08,21,05,15,9.80
2010,08,21,05,16,9.80
2010,08,21,05,17,9.80
2010,08,21,05,18,9.80
2010,08,21,05,19,9.80
2010,08,21,05,20,9.80
2010,08,21,05,21,9.80
2010,08,21,05,22,9.80
2010,08,21,05,23,9.70
2010,08,21,05,24,9.70
2010,08,21,05,25,9.70
2010,08,21,05,26,9.60
2010,08,21,05,27,9.60
2010,08,21,05,28,9.60
2010,08,21,05,29,9.60
2010,08,21,05,30,9.60
2010,08,21,05,31,9.60
2010,08,21,05,32,9.60
2010,08,21,05,33,9.60
2010,08,21,05,34,9.60
2010,08,21,05,35,9.60
2010,08,21,05,36,9.60
2010,08,21,05,37,9.50
2010,08,21,05,38,9.50
2010,08,21,05,39,9.50
2010,08,21,05,40,9.50
2010,08,21,05,41,9.50
2010,08,21,05,42,9.50
2010,08,21,05,43,9.50
2010,08,21,05,44,9.50
2010,08,21,05,45,9.50
2010,08,21,05,46,9.50
2010,08,21,05,47,9.50
2010,08,21,05,48,9.50
2010,08,21,05,49,9.50
2010,08,21,05,50,9.50
2010,08,21,05,51,9.50
2010,08,21,05,52,9.50
2010,08,21,05,53,9.50
2010,08,21,05,54,9.50
2010,08,21,05,55,9.50
2010,08,21,05,56,9.60
2010,08,21,05,57,9.60
2010,08,21,05,58,9.60
2010,08,21,05,59,9.60
2010,08,21,06,00,9.60
2010,08,21,06,01,9.60
2010,08,21,06,02,9.60
2010,08,21,06,03,9.60
2010,08,21,06,04,9.60
2010,08,21,06,05,9.60
2010,08,21,06,06,9.60
2010,08,21,06,07,9.60
2010,08,21,06,08,9.60
2010,08,21,06,09,9.60
2010,08,21,06,10,9.50
2010,08,21,06,11,9.50
2010,08,21,06,12,9.50
2010,08,21,06,13,9.50
2010,08,21,06,14,9.50
2010,08,21,06,15,9.40
2010,08,21,06,16,9.40
2010,08,21,06,17,9.40
2010,08,21,06,18,9.40
2010,08,21,06,19,9.30
2010,08,21,06,20,9.30
2010,08,21,06,21,9.30
2010,08,21,06,22,9.30
2010,08,21,06,23,9.30
2010,08,21,06,24,9.30
2010,08,21,06,25,9.20
2010,08,21,06,26,9.20
2010,08,21,06,27,9.20
2010,08,21,06,28,9.20
2010,08,21,06,29,9.20
2010,08,21,06,30,9.20
2010,08,21,06,31,9.20
2010,08,21,06,32,9.20
2010,08,21,06,33,9.20
2010,08,21,06,34,9.20
2010,08,21,06,35,9.20
2010,08,21,06,36,9.20
2010,08,21,06,37,9.20
2010,08,21,06,38,9.10
2010,08,21,06,39,9.10
2010,08,21,06,40,9.10
2010,08,21,06,41,9.10
2010,08,21,06,42,9.10
2010,08,21,06,43,9.10
2010,08,21,06,44,9.20
2010,08,21,06,45,9.20
2010,08,21,06,46,9.20
2010,08,21,06,47,9.20
2010,08,21,06,48,9.10
2010,08,21,06,49,9.10
2010,08,21,06,50,9.10
2010,08,21,06,51,9.20
2010,08,21,06,52,9.20
2010,08,21,06,53,9.20
2010,08,21,06,54,9.20
2010,08,21,06,55,9.20
2010,08,21,06,56,9.20
2010,08,21,06,57,9.20
2010,08,21,06,58,9.20
2010,08,21,06,59,9.20
2010,08,21,07,00,9.20
2010,08,21,07,01,9.20
2010,08,21,07,02,9.20
2010,08,21,07,03,9.20
2010,08,21,07,04,9.20
2010,08,21,07,05,9.20
2010,08,21,07,06,9.20
2010,08,21,07,07,9.20
2010,08,21,07,08,9.20
2010,08,21,07,09,9.30
2010,08,21,07,10,9.30
2010,08,21,07,11,9.30
2010,08,21,07,12,9.30
2010,08,21,07,13,9.30
2010,08,21,07,14,9.40
2010,08,21,07,15,9.40
2010,08,21,07,16,9.40
2010,08,21,07,17,9.50
2010,08,21,07,18,9.50
2010,08,21,07,19,9.60
2010,08,21,07,20,9.60
2010,08,21,07,21,9.60
2010,08,21,07,22,9.70
2010,08,21,07,23,9.70
2010,08,21,07,24,9.80
2010,08,21,07,25,9.80
2010,08,21,07,26,9.90
2010,08,21,07,27,9.90
2010,08,21,07,28,10.00
2010,08,21,07,29,10.00
2010,08,21,07,30,10.10
2010,08,21,07,31,10.10
2010,08,21,07,32,10.20
2010,08,21,07,33,10.20
2010,08,21,07,34,10.30
2010,08,21,07,35,10.40
2010,08,21,07,36,10.40
2010,08,21,07,37,10.50
2010,08,21,07,38,10.60
2010,08,21,07,39,10.70
2010,08,21,07,40,10.80
2010,08,21,07,41,10.90
2010,08,21,07,42,11.00
2010,08,21,07,43,11.00
2010,08,21,07,44,11.10
2010,08,21,07,45,11.10
2010,08,21,07,46,11.10
2010,08,21,07,47,11.20
2010,08,21,07,48,11.20
2010,08,21,07,49,11.20
2010,08,21,07,50,11.30
2010,08,21,07,51,11.30
2010,08,21,07,52,11.40
2010,08,21,07,53,11.40
2010,08,21,07,54,11.40
2010,08,21,07,55,11.50
2010,08,21,07,56,11.50
2010,08,21,07,57,11.60
2010,08,21,07,58,11.60
2010,08,21,07,59,11.60
2010,08,21,08,00,11.60
2010,08,21,08,01,11.70
2010,08,21,08,02,11.70
2010,08,21,08,03,11.70
2010,08,21,08,04,11.80
2010,08,21,08,05,11.80
2010,08,21,08,06,11.90
2010,08,21,08,07,12.00
2010,08,21,08,08,12.10
2010,08,21,08,09,12.20
2010,08,21,08,10,12.30
2010,08,21,08,11,12.40
2010,08,21,08,12,12.50
2010,08,21,08,13,12.50
2010,08,21,08,14,12.70
2010,08,21,08,15,12.80
2010,08,21,08,16,12.90
2010,08,21,08,17,13.00
2010,08,21,08,18,13.10
2010,08,21,08,19,13.20
2010,08,21,08,20,13.40
2010,08,21,08,21,13.40
2010,08,21,08,22,13.50
2010,08,21,08,23,13.60
2010,08,21,08,24,13.70
2010,08,21,08,25,13.80
2010,08,21,08,26,13.90
2010,08,21,08,27,14.00
2010,08,21,08,28,14.10
2010,08,21,08,29,14.20
2010,08,21,08,30,14.20
2010,08,21,08,31,14.30
2010,08,21,08,32,14.30
2010,08,21,08,33,14.30
2010,08,21,08,34,14.30
2010,08,21,08,35,14.30
2010,08,21,08,36,14.30
2010,08,21,08,37,14.30
2010,08,21,08,38,14.30
2010,08,21,08,39,14.40
2010,08,21,08,40,14.40
2010,08,21,08,41,14.50
2010,08,21,08,42,14.50
2010,08,21,08,43,14.60
2010,08,21,08,44,14.60
2010,08,21,08,45,14.70
2010,08,21,08,46,14.70
2010,08,21,08,47,14.80
2010,08,21,08,48,14.90
2010,08,21,08,49,15.00
2010,08,21,08,50,15.00
2010,08,21,08,51,15.00
2010,08,21,08,52,15.00
2010,08,21,08,53,15.00
2010,08,21,08,54,15.10
2010,08,21,08,55,15.20
2010,08,21,08,56,15.20
2010,08,21,08,57,15.30
2010,08,21,08,58,15.30
2010,08,21,08,59,15.40
2010,08,21,09,00,15.40
2010,08,21,09,01,15.50
2010,08,21,09,02,15.50
2010,08,21,09,03,15.60
2010,08,21,09,04,15.70
2010,08,21,09,05,15.80
2010,08,21,09,06,15.80
2010,08,21,09,07,15.90
2010,08,21,09,08,15.90
2010,08,21,09,09,16.00
2010,08,21,09,10,15.90
2010,08,21,09,11,15.90
2010,08,21,09,12,15.90
2010,08,21,09,13,15.80
2010,08,21,09,14,15.80
2010,08,21,09,15,15.80
2010,08,21,09,16,15.70
2010,08,21,09,17,15.70
2010,08,21,09,18,15.70
2010,08,21,09,19,15.60
2010,08,21,09,20,15.60
2010,08,21,09,21,15.60
2010,08,21,09,22,15.60
2010,08,21,09,23,15.60
2010,08,21,09,24,15.60
2010,08,21,09,25,15.60
2010,08,21,09,26,15.50
2010,08,21,09,27,15.50
2010,08,21,09,28,15.50
2010,08,21,09,29,15.60
2010,08,21,09,30,15.60
2010,08,21,09,31,15.70
2010,08,21,09,32,15.70
2010,08,21,09,33,15.70
2010,08,21,09,34,15.70
2010,08,21,09,35,15.70
2010,08,21,09,36,15.60
2010,08,21,09,37,15.60
2010,08,21,09,38,15.50
2010,08,21,09,39,15.50
2010,08,21,09,40,15.40
2010,08,21,09,41,15.40
2010,08,21,09,42,15.40
2010,08,21,09,43,15.40
2010,08,21,09,44,15.40
2010,08,21,09,45,15.30
2010,08,21,09,46,15.30
2010,08,21,09,47,15.30
2010,08,21,09,48,15.40
2010,08,21,09,49,15.40
2010,08,21,09,50,15.50
2010,08,21,09,51,15.60
2010,08,21,09,52,15.60
2010,08,21,09,53,15.60
2010,08,21,09,54,15.60
2010,08,21,09,55,15.60
2010,08,21,09,56,15.60
2010,08,21,09,57,15.50
2010,08,21,09,58,15.50
2010,08,21,09,59,15.50
2010,08,21,10,00,15.50
2010,08,21,10,01,15.60
2010,08,21,10,02,15.60
2010,08,21,10,03,15.60
2010,08,21,10,04,15.60
2010,08,21,10,05,15.60
2010,08,21,10,06,15.70
2010,08,21,10,07,15.70
2010,08,21,10,08,15.70
2010,08,21,10,09,15.80
2010,08,21,10,10,15.80
2010,08,21,10,11,15.90
2010,08,21,10,12,16.00
2010,08,21,10,13,16.00
2010,08,21,10,14,15.90
2010,08,21,10,15,15.90
2010,08,21,10,16,15.90
2010,08,21,10,17,15.90
2010,08,21,10,18,15.90
2010,08,21,10,19,15.90
2010,08,21,10,20,15.90
2010,08,21,10,21,15.90
2010,08,21,10,22,15.90
2010,08,21,10,23,16.00
2010,08,21,10,24,16.00
2010,08,21,10,25,16.00
2010,08,21,10,26,16.00
2010,08,21,10,27,16.00
2010,08,21,10,28,16.10
2010,08,21,10,29,16.10
2010,08,21,10,30,16.10
2010,08,21,10,31,16.20
2010,08,21,10,32,16.30
2010,08,21,10,33,16.30
2010,08,21,10,34,16.40
2010,08,21,10,35,16.50
2010,08,21,10,36,16.40
2010,08,21,10,37,16.50
2010,08,21,10,38,16.50
2010,08,21,10,39,16.50
2010,08,21,10,40,16.40
2010,08,21,10,41,16.50
2010,08,21,10,42,16.50
2010,08,21,10,43,16.50
2010,08,21,10,44,16.40
2010,08,21,10,45,16.30
2010,08,21,10,46,16.10
2010,08,21,10,47,16.10
2010,08,21,10,48,16.00
2010,08,21,10,49,16.00
2010,08,21,10,50,16.00
2010,08,21,10,51,16.00
2010,08,21,10,52,16.00
2010,08,21,10,53,16.00
2010,08,21,10,54,16.10
2010,08,21,10,55,16.10
2010,08,21,10,56,16.20
2010,08,21,10,57,16.20
2010,08,21,10,58,16.10
2010,08,21,10,59,16.00
2010,08,21,11,00,15.90
2010,08,21,11,01,15.90
2010,08,21,11,02,15.90
2010,08,21,11,03,15.90
2010,08,21,11,04,16.00
2010,08,21,11,05,16.00
2010,08,21,11,06,16.00
2010,08,21,11,07,16.00
2010,08,21,11,08,15.90
2010,08,21,11,09,16.00
2010,08,21,11,10,16.10
2010,08,21,11,11,16.20
2010,08,21,11,12,16.30
2010,08,21,11,13,16.40
2010,08,21,11,14,16.50
2010,08,21,11,15,16.70
2010,08,21,11,16,16.80
2010,08,21,11,17,16.90
2010,08,21,11,18,16.90
2010,08,21,11,19,16.90
2010,08,21,11,20,16.80
2010,08,21,11,21,16.80
2010,08,21,11,22,16.80
2010,08,21,11,23,16.80
2010,08,21,11,24,16.70
2010,08,21,11,25,16.70
2010,08,21,11,26,16.70
2010,08,21,11,27,16.70
2010,08,21,11,28,16.80
2010,08,21,11,29,16.80
2010,08,21,11,30,16.90
2010,08,21,11,31,16.90
2010,08,21,11,32,16.90
2010,08,21,11,33,16.90
2010,08,21,11,34,16.90
2010,08,21,11,35,16.90
2010,08,21,11,36,16.80
2010,08,21,11,37,16.70
2010,08,21,11,38,16.70
2010,08,21,11,39,16.80
2010,08,21,11,40,16.90
2010,08,21,11,41,16.90
2010,08,21,11,42,16.90
2010,08,21,11,43,16.90
2010,08,21,11,44,16.90
2010,08,21,11,45,16.90
2010,08,21,11,46,17.00
2010,08,21,11,47,17.10
2010,08,21,11,48,17.20
2010,08,21,11,49,17.20
2010,08,21,11,50,17.30
2010,08,21,11,51,17.30
2010,08,21,11,52,17.30
2010,08,21,11,53,17.30
2010,08,21,11,54,17.40
2010,08,21,11,55,17.40
2010,08,21,11,56,17.30
2010,08,21,11,57,17.30
2010,08,21,11,58,17.20
2010,08,21,11,59,17.20
2010,08,21,12,00,17.20
2010,08,21,12,01,17.10
2010,08,21,12,02,17.00
2010,08,21,12,03,16.90
2010,08,21,12,04,16.80
2010,08,21,12,05,16.80
2010,08,21,12,06,16.80
2010,08,21,12,07,16.80
2010,08,21,12,08,16.80
2010,08,21,12,09,16.80
2010,08,21,12,10,16.80
2010,08,21,12,11,16.80
2010,08,21,12,12,16.80
2010,08,21,12,13,16.80
2010,08,21,12,14,16.80
2010,08,21,12,15,16.80
2010,08,21,12,16,16.90
2010,08,21,12,17,17.00
2010,08,21,12,18,17.00
2010,08,21,12,19,17.10
2010,08,21,12,20,17.20
2010,08,21,12,21,17.20
2010,08,21,12,22,17.20
2010,08,21,12,23,17.30
2010,08,21,12,24,17.30
2010,08,21,12,25,17.30
2010,08,21,12,26,17.10
2010,08,21,12,27,17.10
2010,08,21,12,28,17.20
2010,08,21,12,29,17.10
2010,08,21,12,30,17.10
2010,08,21,12,31,17.00
2010,08,21,12,32,16.90
2010,08,21,12,33,16.80
2010,08,21,12,34,16.80
2010,08,21,12,35,16.70
2010,08,21,12,36,16.70
2010,08,21,12,37,16.70
2010,08,21,12,38,16.70
2010,08,21,12,39,16.70
2010,08,21,12,40,16.60
2010,08,21,12,41,16.60
2010,08,21,12,42,16.60
2010,08,21,12,43,16.60
2010,08,21,12,44,16.60
2010,08,21,12,45,16.60
2010,08,21,12,46,16.50
2010,08,21,12,47,16.50
2010,08,21,12,48,16.40
2010,08,21,12,49,16.40
2010,08,21,12,50,16.40
2010,08,21,12,51,16.40
2010,08,21,12,52,16.40
2010,08,21,12,53,16.40
2010,08,21,12,54,16.40
2010,08,21,12,55,16.40
2010,08,21,12,56,16.40
2010,08,21,12,57,16.40
2010,08,21,12,58,16.40
2010,08,21,12,59,16.40
2010,08,21,13,00,16.30
2010,08,21,13,01,16.30
2010,08,21,13,02,16.30
2010,08,21,13,03,16.30
2010,08,21,13,04,16.40
2010,08,21,13,05,16.40
2010,08,21,13,06,16.50
2010,08,21,13,07,16.50
2010,08,21,13,08,16.50
2010,08,21,13,09,16.50
2010,08,21,13,10,16.50
2010,08,21,13,11,16.60
2010,08,21,13,12,16.60
2010,08,21,13,13,16.60
2010,08,21,13,14,16.70
2010,08,21,13,15,16.70
2010,08,21,13,16,16.70
2010,08,21,13,17,16.80
2010,08,21,13,18,16.90
2010,08,21,13,19,16.90
2010,08,21,13,20,16.90
2010,08,21,13,21,17.00
2010,08,21,13,22,17.10
2010,08,21,13,23,17.20
2010,08,21,13,24,17.20
2010,08,21,13,25,17.10
2010,08,21,13,26,17.00
2010,08,21,13,27,16.90
2010,08,21,13,28,17.00
2010,08,21,13,29,17.00
2010,08,21,13,30,17.10
2010,08,21,13,31,17.20
2010,08,21,13,32,17.30
2010,08,21,13,33,17.30
2010,08,21,13,34,17.30
2010,08,21,13,35,17.30
2010,08,21,13,36,17.30
2010,08,21,13,37,17.40
2010,08,21,13,38,17.40
2010,08,21,13,39,17.50
2010,08,21,13,40,17.50
2010,08,21,13,41,17.50
2010,08,21,13,42,17.50
2010,08,21,13,43,17.70
2010,08,21,13,44,17.80
2010,08,21,13,45,18.00
2010,08,21,13,46,18.30
2010,08,21,13,47,18.60
2010,08,21,13,48,18.70
2010,08,21,13,49,18.90
2010,08,21,13,50,18.90
2010,08,21,13,51,18.90
2010,08,21,13,52,18.90
2010,08,21,13,53,18.90
2010,08,21,13,54,18.90
2010,08,21,13,55,19.00
2010,08,21,13,56,18.90
2010,08,21,13,57,18.80
2010,08,21,13,58,18.80
2010,08,21,13,59,18.70
2010,08,21,14,00,18.70
2010,08,21,14,01,18.70
2010,08,21,14,02,18.70
2010,08,21,14,03,18.70
2010,08,21,14,04,18.70
2010,08,21,14,05,18.70
2010,08,21,14,06,18.80
2010,08,21,14,07,18.90
2010,08,21,14,08,19.10
2010,08,21,14,09,19.30
2010,08,21,14,10,19.50
2010,08,21,14,11,19.70
2010,08,21,14,12,19.90
2010,08,21,14,13,20.00
2010,08,21,14,14,20.10
2010,08,21,14,15,20.20
2010,08,21,14,16,20.40
2010,08,21,14,17,20.40
2010,08,21,14,18,20.50
2010,08,21,14,19,20.50
2010,08,21,14,20,20.60
2010,08,21,14,21,20.50
2010,08,21,14,22,20.50
2010,08,21,14,23,20.50
2010,08,21,14,24,20.60
2010,08,21,14,25,20.80
2010,08,21,14,26,20.90
2010,08,21,14,27,20.90
2010,08,21,14,28,20.90
2010,08,21,14,29,21.00
2010,08,21,14,30,21.10
2010,08,21,14,31,21.20
2010,08,21,14,32,21.20
2010,08,21,14,33,21.20
2010,08,21,14,34,21.30
2010,08,21,14,35,21.30
2010,08,21,14,36,21.30
2010,08,21,14,37,21.30
2010,08,21,14,38,21.30
2010,08,21,14,39,21.20
2010,08,21,14,40,21.20
2010,08,21,14,41,21.20
2010,08,21,14,42,21.20
2010,08,21,14,43,21.30
2010,08,21,14,44,21.30
2010,08,21,14,45,21.30
2010,08,21,14,46,21.40
2010,08,21,14,47,21.40
2010,08,21,14,48,21.40
2010,08,21,14,49,21.40
2010,08,21,14,50,21.30
2010,08,21,14,51,21.30
2010,08,21,14,52,21.40
2010,08,21,14,53,21.50
2010,08,21,14,54,21.50
2010,08,21,14,55,21.60
2010,08,21,14,56,21.60
2010,08,21,14,57,21.60
2010,08,21,14,58,21.50
2010,08,21,14,59,21.40
2010,08,21,15,00,21.30
2010,08,21,15,01,21.20
2010,08,21,15,02,21.00
2010,08,21,15,03,21.00
2010,08,21,15,04,20.90
2010,08,21,15,05,20.80
2010,08,21,15,06,20.70
2010,08,21,15,07,20.70
2010,08,21,15,08,20.60
2010,08,21,15,09,20.50
2010,08,21,15,10,20.40
2010,08,21,15,11,20.40
2010,08,21,15,12,20.50
2010,08,21,15,13,20.50
2010,08,21,15,14,20.50
2010,08,21,15,15,20.50
2010,08,21,15,16,20.60
2010,08,21,15,17,20.70
2010,08,21,15,18,20.70
2010,08,21,15,19,20.70
2010,08,21,15,20,20.70
2010,08,21,15,21,20.80
2010,08,21,15,22,20.90
2010,08,21,15,23,20.90
2010,08,21,15,24,20.90
2010,08,21,15,25,20.90
2010,08,21,15,26,20.80
2010,08,21,15,27,20.70
2010,08,21,15,28,20.50
2010,08,21,15,29,20.30
2010,08,21,15,30,20.10
2010,08,21,15,31,20.10
2010,08,21,15,32,20.10
2010,08,21,15,33,20.20
2010,08,21,15,34,20.30
2010,08,21,15,35,20.50
2010,08,21,15,36,20.60
2010,08,21,15,37,20.80
2010,08,21,15,38,21.00
2010,08,21,15,39,21.20
2010,08,21,15,40,21.50
2010,08,21,15,41,21.70
2010,08,21,15,42,21.80
2010,08,21,15,43,21.70
2010,08,21,15,44,21.80
2010,08,21,15,45,22.00
2010,08,21,15,46,22.30
2010,08,21,15,47,22.50
2010,08,21,15,48,22.70
2010,08,21,15,49,22.80
2010,08,21,15,50,22.90
2010,08,21,15,51,23.00
2010,08,21,15,52,23.10
2010,08,21,15,53,23.20
2010,08,21,15,54,23.30
2010,08,21,15,55,23.30
2010,08,21,15,56,23.40
2010,08,21,15,57,23.30
2010,08,21,15,58,23.20
2010,08,21,15,59,23.00
2010,08,21,16,00,22.80
2010,08,21,16,01,22.60
2010,08,21,16,02,22.30
2010,08,21,16,03,21.90
2010,08,21,16,04,21.50
2010,08,21,16,05,21.20
2010,08,21,16,06,21.00
2010,08,21,16,07,20.80
2010,08,21,16,08,20.70
2010,08,21,16,09,20.70
2010,08,21,16,10,20.70
2010,08,21,16,11,20.70
2010,08,21,16,12,20.70
2010,08,21,16,13,20.70
2010,08,21,16,14,20.70
2010,08,21,16,15,20.80
2010,08,21,16,16,20.80
2010,08,21,16,17,20.80
2010,08,21,16,18,20.80
2010,08,21,16,19,20.80
2010,08,21,16,20,20.90
2010,08,21,16,21,20.90
2010,08,21,16,22,20.90
2010,08,21,16,23,20.90
2010,08,21,16,24,20.90
2010,08,21,16,25,20.90
2010,08,21,16,26,20.80
2010,08,21,16,27,20.80
2010,08,21,16,28,20.70
2010,08,21,16,29,20.70
2010,08,21,16,30,20.70
2010,08,21,16,31,20.60
2010,08,21,16,32,20.50
2010,08,21,16,33,20.40
2010,08,21,16,34,20.40
2010,08,21,16,35,20.30
2010,08,21,16,36,20.30
2010,08,21,16,37,20.20
2010,08,21,16,38,20.20
2010,08,21,16,39,20.20
2010,08,21,16,40,20.20
2010,08,21,16,41,20.20
2010,08,21,16,42,20.20
2010,08,21,16,43,20.20
2010,08,21,16,44,20.20
2010,08,21,16,45,20.20
2010,08,21,16,46,20.20
2010,08,21,16,47,20.20
2010,08,21,16,48,20.10
2010,08,21,16,49,20.20
2010,08,21,16,50,20.20
2010,08,21,16,51,20.20
2010,08,21,16,52,20.30
2010,08,21,16,53,20.30
2010,08,21,16,54,20.50
2010,08,21,16,55,20.60
2010,08,21,16,56,20.70
2010,08,21,16,57,20.70
2010,08,21,16,58,20.80
2010,08,21,16,59,20.80
2010,08,21,17,00,20.90
2010,08,21,17,01,21.00
2010,08,21,17,02,21.10
2010,08,21,17,03,21.20
2010,08,21,17,04,21.20
2010,08,21,17,05,21.30
2010,08,21,17,06,21.40
2010,08,21,17,07,21.60
2010,08,21,17,08,21.70
2010,08,21,17,09,21.80
2010,08,21,17,10,21.90
2010,08,21,17,11,22.00
2010,08,21,17,12,22.00
2010,08,21,17,13,22.10
2010,08,21,17,14,22.10
2010,08,21,17,15,22.00
2010,08,21,17,16,21.90
2010,08,21,17,17,21.90
2010,08,21,17,18,21.80
2010,08,21,17,19,21.80
2010,08,21,17,20,21.80
2010,08,21,17,21,21.80
2010,08,21,17,22,21.90
2010,08,21,17,23,22.00
2010,08,21,17,24,22.10
2010,08,21,17,25,22.20
2010,08,21,17,26,22.30
2010,08,21,17,27,22.30
2010,08,21,17,28,22.40